Location: Unspecified
(0.0000°N, 0.0000°E)
Time: 23:13:08
(UTC+00:00)

MIDAS 4 DEB - Pass Details

Date: 21 December 2025
Orbit: 3362 x 3904 km, 95.8° (Epoch: 13 January)

Event Time Altitude Azimuth Distance (km) Brightness Sun altitude
Rises 20:20:15 0° 330° (NNW) 7,358 ? -32.2°
Reaches altitude 10° 20:29:09 10° 304° (NW) 6,344 ? -34.1°
Maximum altitude 20:34:27 12° 284° (WNW) 6,188 ? -35.3°
Drops below altitude 10° 20:39:52 10° 265° (W) 6,414 ? -36.5°
Sets 20:49:26 0° 237° (WSW) 7,546 ? -38.5°
